Vorticity
nan nan nan nan nan nan nan nan nan nan nan nan nan nan nan nan nan nan nan nan nan nan nan nan nan nan nan nan nan nan nan nan nan nan nan nan nan nan nan nan nan nan nan
nan 7 7 7 7 7 6 7 7 7 7 8 10 10 8 9 9 7 7 15 12 5 6 6 6 7 7 6 6 6 7 7 7 8 7 7 9 9 10 9 7 7 nan
nan 6 7 9 8 7 7 7 8 8 8 8 9 8 9 11 8 7 7 8 16 14 8 8 6 7 9 6 6 6 6 7 8 7 8 9 8 10 9 8 6 6 nan
nan 7 8 9 8 8 10 9 8 8 8 7 9 8 8 9 10 10 8 7 8 14 15 12 9 10 8 7 6 6 7 6 7 7 7 9 9 8 7 7 6 6 nan
nan 7 7 8 8 8 7 7 8 9 7 8 9 9 8 7 9 10 9 9 9 7 13 19 18 12 9 8 7 7 6 6 6 7 7 8 9 8 8 7 6 7 nan
nan 6 6 8 8 8 8 8 7 7 8 8 8 9 10 11 11 11 9 10 12 9 8 11 14 19 15 8 10 9 7 6 6 6 5 7 9 9 7 7 8 7 nan
nan 7 7 8 8 8 7 7 9 9 8 9 8 10 11 9 9 10 10 10 8 9 8 8 8 9 16 19 14 10 10 7 6 6 6 7 8 8 9 8 8 8 nan
nan 8 8 9 7 7 8 9 7 8 10 9 7 8 7 8 9 9 9 9 8 9 9 9 8 8 8 13 16 16 12 10 8 7 7 8 8 9 10 8 8 8 nan
nan 9 7 8 8 8 8 8 10 8 8 8 10 5 7 9 7 8 10 10 10 6 9 10 9 10 9 10 12 16 13 10 10 8 6 8 10 6 3 8 10 8 nan
nan 8 9 9 7 7 8 9 9 9 9 7 9 9 9 9 6 7 10 9 9 9 8 6 9 12 10 12 14 11 12 11 10 9 9 6 8 9 6 4 5 9 nan
nan 9 10 9 8 8 9 8 8 8 7 9 7 7 9 9 10 8 6 8 11 10 8 8 9 11 10 8 9 12 12 9 11 10 8 9 9 6 7 9 6 4 nan
nan 9 9 8 9 9 9 9 9 9 8 7 8 8 8 8 9 8 9 9 8 9 11 9 10 10 9 10 11 10 9 9 9 14 13 11 11 11 9 7 8 6 nan
nan 11 9 8 9 9 9 9 9 9 8 8 7 8 9 8 9 9 8 9 9 9 11 11 11 10 9 10 12 12 12 10 10 13 15 12 11 11 11 11 9 8 nan
nan 8 10 10 10 10 10 8 8 8 8 8 9 8 8 9 9 10 9 8 8 9 9 10 11 11 11 11 10 10 15 15 11 10 11 10 12 13 12 11 10 10 nan
nan 11 12 14 15 13 9 7 7 8 8 9 10 10 9 10 10 9 9 9 8 8 8 10 10 12 12 10 10 12 9 13 11 11 11 11 9 10 11 14 14 10 nan
nan 10 12 13 10 12 14 15 10 9 8 8 9 8 8 9 8 10 11 10 10 10 10 8 7 9 11 11 11 9 9 9 10 9 9 10 10 10 12 13 13 13 nan
nan 9 6 3 1 7 10 7 5 10 11 8 9 10 7 8 8 9 9 9 10 9 9 8 10 8 9 8 10 11 10 9 12 12 9 8 9 8 9 10 10 12 nan
nan 2 3 8 8 7 6 7 8 9 9 10 10 9 9 9 9 9 9 9 9 9 10 9 6 10 9 10 10 9 10 11 11 13 12 9 9 9 9 9 9 10 nan
nan 8 9 9 15 14 10 12 9 7 9 9 10 9 10 9 8 9 10 9 8 9 10 11 8 8 9 9 11 12 11 10 11 13 17 16 12 11 11 11 10 10 nan
nan 13 11 9 13 12 11 11 12 10 10 10 10 10 11 9 8 9 9 8 9 8 8 9 11 10 9 9 10 9 9 10 10 12 12 17 17 17 16 12 9 10 nan
nan 13 11 10 8 7 10 8 9 10 10 11 10 10 11 12 9 6 6 10 9 7 9 9 8 9 9 10 9 9 10 10 8 9 10 9 13 14 17 15 12 10 nan
nan 14 12 12 13 7 6 13 15 14 14 14 12 12 13 13 15 12 8 10 8 8 9 9 9 9 9 8 9 10 9 10 10 7 10 10 10 10 12 12 12 13 nan
nan 11 12 13 13 8 11 21 25 19 14 14 17 15 14 17 16 13 11 11 10 11 14 13 11 10 10 9 7 9 10 9 8 6 11 12 10 10 10 12 14 12 nan
nan 10 10 12 10 6 11 20 19 16 12 12 12 15 17 18 20 22 20 9 8 10 13 14 12 10 10 12 9 11 10 9 9 12 10 8 9 10 11 12 12 13 nan
nan 8 8 9 11 8 11 17 11 8 8 8 9 12 15 16 20 18 10 7 10 7 11 11 8 12 13 14 14 9 8 8 10 12 10 10 10 11 10 11 11 11 nan
nan nan nan nan nan nan nan nan nan nan nan nan nan nan nan nan nan nan nan nan nan nan nan nan nan nan nan nan nan nan nan nan nan nan nan nan nan nan nan nan nan nan nan
CAPE
318 462 291 184 224 116 77 40 0 0 0 7 0 0 0 0 23 25 6 596 1421 1396 1299 1088 651 818 694 386 302 290 179 239 323 365 417 506 794 1050 836 983 1005 887 990
142 189 147 112 125 0 0 0 0 0 10 302 58 0 0 0 0 0 5 195 1682 940 1650 1081 1247 836 842 691 448 322 223 223 308 433 668 595 568 633 590 757 795 630 974
128 181 179 134 67 4 10 0 0 0 34 133 106 82 114 23 0 0 0 0 515 1493 1131 1992 1742 1230 881 944 681 408 611 703 483 405 526 447 572 530 571 832 919 878 1190
126 341 99 31 27 116 132 36 45 332 300 215 191 245 269 185 87 0 0 28 84 580 1262 1497 1376 1724 1212 990 1049 804 863 944 752 859 751 391 505 599 566 1112 1182 1368 1249
84 527 308 125 67 204 211 216 284 194 235 288 305 485 419 222 339 717 242 101 51 226 597 1108 1475 1151 1010 1542 1273 1156 1203 1243 1062 918 901 695 582 734 755 1078 1400 1378 1507
32 553 441 192 450 242 93 0 0 45 159 247 622 972 266 136 46 13 102 471 548 672 691 400 592 607 1346 1295 1678 1077 1421 988 1321 857 1120 892 645 735 1021 1276 1457 1421 1548
310 359 611 255 326 283 166 162 193 287 304 238 342 164 40 221 136 90 176 483 477 558 604 677 199 261 629 1728 1388 1240 1229 1451 973 1049 1379 1102 862 815 1114 1158 1241 1347 1312
628 498 546 498 487 307 258 329 388 206 185 189 179 57 75 6 33 18 4 129 27 161 704 833 528 146 159 238 488 1318 1424 1413 1249 664 877 999 646 605 981 871 907 1324 1243
507 345 383 232 300 389 336 290 422 208 403 264 246 212 154 36 13 17 112 188 5 93 419 531 771 685 477 383 707 1071 1656 1353 1509 1086 721 957 635 424 155 273 516 623 892
482 617 842 543 338 435 602 361 286 375 242 106 104 180 107 27 195 31 4 88 75 375 375 122 248 643 352 182 570 765 1320 1299 1438 1398 871 539 447 280 55 63 129 371 479
589 806 1373 760 421 391 557 410 652 372 130 156 81 66 29 61 53 27 19 6 65 71 233 210 151 459 353 191 152 513 1119 1320 1257 1331 1393 861 654 256 240 193 311 46 436
973 901 1005 1034 787 684 742 606 536 247 193 2 0 9 37 41 0 0 0 0 0 9 19 100 73 279 628 424 522 657 1089 1033 1043 1187 1194 1129 911 785 491 217 274 145 0
1191 1245 1357 917 860 854 785 448 96 0 0 0 0 22 46 39 0 0 0 0 0 0 0 0 0 0 690 670 764 1360 1342 1081 922 896 711 842 846 784 829 808 492 330 107
903 742 720 950 760 769 696 170 0 0 0 0 0 0 0 47 0 4 0 0 0 0 0 0 0 55 343 456 543 1314 1143 973 921 940 735 601 760 729 656 665 678 565 566
878 1093 956 886 768 712 526 107 0 0 0 0 0 18 14 0 0 0 0 0 0 0 0 0 0 37 272 298 474 1197 780 845 945 928 660 674 487 711 724 424 426 362 401
1024 652 375 230 104 92 43 0 0 0 0 0 0 0 0 0 0 0 0 0 0 0 0 0 0 16 223 401 358 747 372 327 344 267 234 146 156 201 434 658 524 481 350
469 106 53 23 0 1 36 34 0 0 0 0 0 0 0 0 0 0 0 0 0 0 0 0 0 0 0 0 0 508 393 478 206 242 157 96 50 17 161 483 474 438 334
463 412 193 57 12 0 1 10 19 11 0 0 0 0 0 0 0 0 0 0 0 0 0 0 0 0 0 0 0 0 0 68 351 268 134 122 61 18 10 34 236 247 109
853 413 177 85 0 0 0 0 2 42 7 0 0 6 0 0 0 0 0 0 0 0 0 0 0 0 0 0 0 0 0 0 0 0 0 0 10 17 9 12 21 39 25
452 278 0 0 0 0 47 189 223 94 9 2 0 0 1 0 1 0 0 0 0 0 0 0 0 0 0 0 0 0 0 0 0 0 0 0 0 0 1 6 13 12 4
2 0 0 0 0 0 0 11 1 8 25 57 22 6 0 2 24 0 0 0 0 0 0 0 0 0 0 0 0 0 0 0 0 0 0 0 0 0 12 16 18 22 13
0 1 1 0 0 0 1 1 1 3 213 20 34 14 21 190 138 13 0 0 0 0 0 0 0 0 0 0 0 0 0 0 0 0 0 0 0 0 0 13 38 57 49
1 1 1 1 2 1 1 1 0 1 2 2 4 15 26 159 109 24 0 0 0 0 0 0 0 0 0 0 0 0 0 0 0 0 0 0 0 0 0 0 0 0 9
0 0 1 1 1 2 0 0 1 0 1 1 1 1 2 1 0 0 0 0 0 0 0 0 0 0 0 0 0 0 0 0 0 0 0 0 0 0 0 0 0 8 7
1 1 1 0 0 0 0 0 0 0 0 1 1 1 1 0 1 1 1 1 0 0 2 0 0 0 0 0 0 0 0 0 0 0 0 0 0 0 0 0 0 1 1
1 1 0 0 0 1 0 0 0 0 0 0 1 1 5 1 0 0 0 0 0 1 0 0 0 0 0 0 4 0 0 0 0 0 0 8 6 0 0 0 2 0 0